[[{"header":{"parameterUnit":"m.s-1","parameterCategory":1,"la1":30.2991,"la2":30.254,"lo1":-89.0895,"lo2":-89.0444,"dy":0.0017,"dx":0.0017,"nx":28,"ny":28,"refTime":"2024-10-17T21:00:00:Z","depth":0,"parameterNumber":2,"parameterNumberName":"U-component_of_WINDS"},"data":[0,0,0,0,0,0,0,0,0,0,0,0,0,0,0,0,0,0,0,0,0,0,0,0,0,0,0,0,0,0,0,0,0,0,0,0,0,0,0,0,0,0,0,0,0,0,0,0,0,0,0,0,0,0,0,0,0,0,-4.3588,-4.3588,0,-4.3609,-4.3609,-4.3609,-4.3459,-4.3455,-4.3451,-4.3447,-4.3471,-4.3476,-4.348,0,0,0,0,0,0,0,0,0,0,0,0,0,-4.3419,-4.3423,-4.3588,-4.3588,-4.3588,-4.3609,-4.3609,-4.3609,-4.346,-4.3455,-4.345,-4.3445,-4.347,-4.3475,-4.3481,0,0,0,0,0,0,0,0,0,0,0,0,0,-4.3472,-4.3425,-4.3588,-4.3516,-4.351,-4.3609,-4.3609,-4.361,-4.3461,-4.3455,-4.3448,-4.3443,-4.3468,-4.3475,-4.3481,-4.3651,0,0,-4.3502,-4.3505,0,0,0,0,0,0,0,0,-4.3469,-4.3478,-4.3526,-4.3521,-4.3514,-4.3525,-4.3559,-4.3623,-4.3463,-4.348,-4.3447,-4.3439,-4.3494,-4.3499,-4.3517,-4.3652,-4.3653,-4.3503,-4.3507,-4.351,-4.3512,0,0,0,0,0,0,0,-4.3466,-4.3477,-4.3596,-4.3527,-4.352,-4.3483,-4.3484,-4.357,-4.3523,-4.3478,-4.3467,-4.3471,-4.349,-4.3511,-4.3516,-4.3653,-4.3503,-4.3509,-4.3513,-4.3516,-4.3929,-4.3936,0,0,0,0,0,0,-4.3471,-4.3474,-4.3595,-4.3597,-4.3476,-4.3492,-4.3492,-4.3528,-4.3521,-4.3514,-4.3477,-4.3464,-4.3502,-4.3508,-4.3517,-4.3715,-4.351,-4.3517,-4.3521,-4.3923,-4.3931,-4.3938,0,0,0,0,0,0,-4.3468,-4.3484,-4.3594,-4.3533,-4.3544,-4.3501,-4.3543,-4.3532,-4.3552,-4.352,-4.3511,-4.3507,-4.3497,-4.3507,-4.3619,-4.3714,-4.352,-4.3526,-4.3915,-4.3925,-4.3935,-4.4115,0,0,0,0,0,0,-4.3464,-4.3483,-4.3547,-4.3535,-4.3548,-4.3696,-4.3549,-4.3537,-4.3564,-4.3548,-4.3546,-4.3539,-4.3493,-4.3609,-4.3625,-4.372,-4.3531,-4.3906,-4.3919,-4.3931,-4.41,-4.413,-4.4155,0,0,0,0,0,-4.3459,-4.3597,-4.3551,-4.3566,-4.3626,-4.3702,-4.3709,-4.3652,-4.3572,-4.3636,-4.3616,-4.3539,-4.3701,-4.3622,-4.3639,-4.3737,-4.39,-4.3915,-4.393,-4.4088,-4.4124,-4.4155,0,0,0,0,0,0,-4.3622,-4.3594,-4.3543,-4.3681,-4.3695,-4.3677,-4.3756,-4.3693,-4.373,-4.3714,-4.3642,-4.3642,-4.3767,-4.3762,-4.3675,-4.3901,-4.3786,-4.3806,-4.39,-4.3934,-4.3961,-4.3961,-4.3537,0,0,0,0,0,-4.3674,-4.3738,-4.371,-4.3835,-4.3844,-4.3799,-4.383,-4.3785,-4.3796,-4.3802,-4.3789,-4.3804,-4.3858,-4.3895,-4.3943,-4.4098,-4.4096,-4.4174,-4.4201,-4.4224,-4.4243,-4.4325,-4.436,-4.3989,-4.3989,-4.3989,0,0,-4.3783,-4.3775,-4.382,-4.3867,-4.3873,-4.3941,-4.3805,-4.3882,-4.3933,-4.3814,-4.3919,-4.391,-4.3922,-4.4057,-4.4115,-4.4057,-4.4344,-4.4244,-4.4262,-4.4268,-4.4345,-4.438,-4.4411,-4.3999,-4.3998,-4.3996,0,0,-4.4016,-4.4016,-4.4121,-4.4129,-4.4138,-4.4107,-4.4132,-4.4123,-4.4113,-4.4217,-4.4129,-4.4188,-4.4282,-4.4294,-4.4313,-4.455,-4.4482,-4.4568,-4.4713,-4.4795,-4.4824,-4.4849,-4.4936,-4.4968,-4.4586,-4.4586,-4.4586,0,-4.415,-4.4248,-4.4183,-4.4266,-4.4291,-4.4184,-4.4291,-4.4302,-4.4327,-4.4347,-4.428,-4.4396,-4.4397,-4.4533,-4.4591,-4.4609,-4.4637,-4.4569,-4.4825,-4.485,-4.4873,-4.4955,-4.4987,-4.4597,-4.4595,-4.4594,-4.4593,0,-4.4414,-4.4483,-4.4567,-4.4594,-4.4626,-4.4721,-4.4671,-4.4712,-4.4664,-4.464,-4.4748,-4.4744,-4.479,-4.4818,-4.4772,-4.4949,-4.4912,-4.4837,-4.472,-4.492,-4.4996,-4.5026,-4.4612,-4.4608,-4.4605,-4.4602,0,0,-4.4753,-4.4741,-4.4773,-4.4784,-4.4786,-4.4839,-4.4929,-4.4973,-4.5011,-4.5031,-4.5106,-4.5187,-4.5117,-4.5139,-4.5093,-4.5164,-4.5354,-4.5079,-4.5078,-4.5132,-4.5551,-4.561,-4.5647,-4.5308,-4.5313,-4.5318,-4.555,0,-4.4982,-4.5135,-4.5078,-4.5235,-4.5299,-4.5199,-4.5277,-4.5288,-4.5268,-4.532,-4.5297,-4.5357,-4.5259,-4.5272,-4.5337,-4.5317,-4.5438,-4.5299,-4.5378,-4.5382,-4.5381,-4.5686,-4.5748,-4.5968,-4.5579,-4.5584,-4.5588,0,-4.527,-4.5302,-4.5466,-4.5457,-4.5482,-4.5554,-4.559,-4.564,-4.565,-4.563,-4.5654,-4.5592,-4.5681,-4.5563,-4.5684,-4.5591,-4.562,-4.5615,-4.5622,-4.5629,-4.5499,-4.5704,-4.6037,-4.6071,-4.5634,-4.563,-4.5627,0,-4.5504,-4.5587,-4.5696,-4.5709,-4.5701,-4.5754,-4.5753,-4.5756,-4.5787,-4.5818,-4.5837,-4.5878,-4.5902,-4.5936,-4.5887,-4.5805,-4.6017,-4.5894,-4.6004,-4.6006,-4.6056,-4.6054,-4.64,-4.6071,-4.607,-4.6069,-4.6069,0,-4.5767,-4.5872,-4.5801,-4.5869,-4.5983,-4.5917,-4.6032,-4.602,-4.6024,-4.6088,-4.6003,-4.6065,-4.5996,-4.6051,-4.6014,-4.6121,-4.6132,-4.6119,-4.6109,-4.6129,-4.6131,-4.6148,-4.6133,-4.6078,-4.6076,-4.6074,-4.6073,0,-4.6049,-4.6005,-4.6118,-4.6101,-4.6099,-4.6185,-4.617,-4.6232,-4.6205,-4.6288,-4.6303,-4.6262,-4.6323,-4.6277,-4.6337,-4.6312,-4.6454,-4.6421,-4.6451,-4.6443,-4.6557,-4.6548,-4.6929,-4.6976,-4.6614,-4.6618,-4.6621,0,-4.6221,-4.6299,-4.6291,-4.6327,-4.6332,-4.6391,-4.6421,-4.6358,-4.6394,-4.6411,-4.6471,-4.6525,-4.6564,-4.6667,-4.6643,-4.6689,-4.6657,-4.6787,-4.6664,-4.6682,-4.6662,-4.6659,-4.6667,-4.6814,-4.6818,-4.6821,-4.6824,0,-4.6532,-4.6507,-4.6553,-4.6593,-4.6631,-4.6659,-4.6681,-4.6716,-4.6651,-4.6695,-4.6756,-4.6787,-4.6848,-4.6904,-4.6941,-4.694,-4.6874,-4.6863,-4.6891,-4.6914,-4.6929,-4.6925,-4.6522,-4.6855,-4.6852,-4.685,-4.6848,-4.6847,-4.6766,-4.6831,-4.6835,-4.689,-4.6899,-4.6921,-4.6979,-4.6959,-4.7009,-4.7054,-4.7013,-4.7087,-4.7095,-4.7138,-4.7146,-4.7203,-4.7149,-4.719,-4.7201,-4.7213,-4.723,-4.6918,-4.7209,-4.7208,-4.7207,-4.7207,-4.7206,0,-4.7075,-4.7072,-4.7123,-4.7155,-4.7199,-4.7129,-4.7149,-4.7191,-4.7257,-4.7269,-4.731,-4.7381,-4.7433,-4.7413,-4.7459,-4.751,-4.748,-4.7524,-4.7521,-4.7523,-4.7274,-4.7246,-4.7548,-4.7547,-4.7547,-4.7547,-4.7547,-4.7547,-4.7241,-4.7348,-4.7323,-4.7434,-4.743,-4.7502,-4.7519,-4.754,-4.7549,-4.7632,-4.7675,-4.7661,-4.766,-4.7706,-4.7752,-4.7744,-4.7767,-4.7823,-4.7805,-4.7574,-4.754,-4.7508,-4.7481,-4.7828,-4.7828,-4.8049,-4.8051,-4.8052]},{"header":{"parameterUnit":"m.s-1","parameterCategory":1,"la1":30.2991,"la2":30.254,"lo1":-89.0895,"lo2":-89.0444,"dy":0.0017,"dx":0.0017,"nx":28,"ny":28,"refTime":"2024-10-17T21:00:00:Z","depth":0,"parameterNumber":3,"parameterNumberName":"V-component_of_WINDS"},"data":[0,0,0,0,0,0,0,0,0,0,0,0,0,0,0,0,0,0,0,0,0,0,0,0,0,0,0,0,0,0,0,0,0,0,0,0,0,0,0,0,0,0,0,0,0,0,0,0,0,0,0,0,0,0,0,0,0,0,-3.6354,-3.6355,0,-3.6402,-3.6403,-3.6403,-3.6367,-3.6366,-3.6364,-3.6363,-3.6409,-3.6412,-3.6414,0,0,0,0,0,0,0,0,0,0,0,0,0,-3.6229,-3.6231,-3.6354,-3.6355,-3.6356,-3.6402,-3.6403,-3.6403,-3.6368,-3.6366,-3.6364,-3.6362,-3.6408,-3.6411,-3.6415,0,0,0,0,0,0,0,0,0,0,0,0,0,-3.628,-3.6232,-3.6354,-3.6343,-3.6343,-3.6402,-3.6403,-3.6403,-3.6368,-3.6366,-3.6363,-3.6361,-3.6407,-3.6411,-3.6415,-3.6486,0,0,-3.6427,-3.6429,0,0,0,0,0,0,0,0,-3.6277,-3.6285,-3.6344,-3.6344,-3.6344,-3.6377,-3.6375,-3.6431,-3.6369,-3.6359,-3.6363,-3.636,-3.64,-3.6404,-3.6418,-3.6488,-3.649,-3.6428,-3.643,-3.6432,-3.6433,0,0,0,0,0,0,0,-3.6274,-3.6283,-3.6373,-3.6345,-3.6345,-3.6335,-3.634,-3.6386,-3.6392,-3.6359,-3.6357,-3.6363,-3.6399,-3.6415,-3.6419,-3.6491,-3.6427,-3.6431,-3.6434,-3.6435,-3.662,-3.6623,0,0,0,0,0,0,-3.6272,-3.628,-3.6372,-3.6375,-3.6304,-3.6339,-3.6345,-3.6368,-3.6391,-3.6392,-3.6365,-3.6361,-3.6409,-3.6415,-3.6421,-3.6505,-3.6432,-3.6435,-3.6438,-3.6618,-3.6621,-3.6624,0,0,0,0,0,0,-3.6269,-3.628,-3.637,-3.6327,-3.6337,-3.6344,-3.6371,-3.637,-3.6386,-3.6395,-3.6396,-3.638,-3.6407,-3.6415,-3.647,-3.6506,-3.6437,-3.6441,-3.6615,-3.6619,-3.6622,-3.6674,0,0,0,0,0,0,-3.6266,-3.628,-3.6308,-3.6328,-3.634,-3.642,-3.6373,-3.6373,-3.6393,-3.6389,-3.6409,-3.6411,-3.6406,-3.6464,-3.6474,-3.651,-3.6444,-3.6612,-3.6617,-3.6621,-3.6669,-3.6679,-3.6688,0,0,0,0,0,-3.6261,-3.632,-3.6309,-3.6321,-3.6375,-3.6422,-3.6429,-3.6423,-3.6396,-3.6424,-3.643,-3.641,-3.65,-3.647,-3.6481,-3.6519,-3.6609,-3.6615,-3.6621,-3.6665,-3.6677,-3.6687,0,0,0,0,0,0,-3.6304,-3.6323,-3.6311,-3.6378,-3.6399,-3.6416,-3.6451,-3.6436,-3.6464,-3.6459,-3.6449,-3.6454,-3.6512,-3.6521,-3.6487,-3.6588,-3.655,-3.6558,-3.658,-3.6592,-3.6601,-3.6598,-3.6447,0,0,0,0,0,-3.6321,-3.6358,-3.6372,-3.643,-3.6441,-3.6444,-3.6464,-3.6458,-3.6479,-3.6487,-3.6497,-3.6517,-3.6549,-3.6571,-3.6602,-3.667,-3.6673,-3.6701,-3.671,-3.6718,-3.6725,-3.676,-3.6772,-3.6642,-3.6642,-3.6642,0,0,-3.6357,-3.6372,-3.6396,-3.6439,-3.6454,-3.6492,-3.6452,-3.6493,-3.6521,-3.6493,-3.6546,-3.6554,-3.6575,-3.6637,-3.6664,-3.6646,-3.6762,-3.6725,-3.6731,-3.6734,-3.6767,-3.678,-3.6791,-3.6646,-3.6645,-3.6645,0,0,-3.6441,-3.6457,-3.6506,-3.6522,-3.6546,-3.6547,-3.6559,-3.6578,-3.6583,-3.6636,-3.6615,-3.6647,-3.6704,-3.672,-3.6735,-3.6824,-3.6806,-3.6834,-3.6882,-3.6917,-3.6927,-3.6936,-3.6967,-3.6978,-3.6841,-3.6841,-3.6841,0,-3.6483,-3.654,-3.6533,-3.6576,-3.6595,-3.6572,-3.6621,-3.6637,-3.6669,-3.6682,-3.6661,-3.6731,-3.6744,-3.6808,-3.683,-3.6844,-3.6856,-3.6832,-3.6926,-3.6935,-3.6944,-3.6973,-3.6985,-3.6845,-3.6844,-3.6844,-3.6844,0,-3.6588,-3.6628,-3.6665,-3.6697,-3.672,-3.6766,-3.6765,-3.6789,-3.6781,-3.6784,-3.6837,-3.6852,-3.6884,-3.6899,-3.6891,-3.6962,-3.695,-3.6928,-3.689,-3.6959,-3.6987,-3.6998,-3.6849,-3.6848,-3.6847,-3.6846,0,0,-3.6701,-3.6729,-3.6743,-3.6757,-3.6781,-3.6811,-3.6855,-3.6887,-3.6907,-3.693,-3.6966,-3.7014,-3.6994,-3.7011,-3.7004,-3.7035,-3.7103,-3.7009,-3.7009,-3.7025,-3.7181,-3.7197,-3.721,-3.7092,-3.7094,-3.7095,-3.7179,0,-3.6786,-3.6865,-3.6859,-3.6932,-3.6968,-3.6946,-3.6984,-3.7002,-3.7006,-3.7036,-3.7039,-3.7074,-3.7045,-3.7055,-3.7084,-3.7089,-3.7134,-3.7083,-3.7124,-3.7125,-3.7119,-3.7225,-3.7242,-3.732,-3.7189,-3.7191,-3.7193,0,-3.6896,-3.6923,-3.7,-3.7018,-3.7032,-3.7067,-3.7096,-3.7125,-3.7144,-3.7145,-3.7164,-3.7152,-3.7195,-3.7156,-3.7214,-3.7179,-3.7196,-3.72,-3.7203,-3.7206,-3.7163,-3.723,-3.7345,-3.7356,-3.721,-3.7208,-3.7207,0,-3.697,-3.7025,-3.7078,-3.7091,-3.7113,-3.7137,-3.7147,-3.7165,-3.7184,-3.7209,-3.7221,-3.7251,-3.7266,-3.7289,-3.7284,-3.7257,-3.7343,-3.7304,-3.7344,-3.7344,-3.7363,-3.7362,-3.7481,-3.7374,-3.7374,-3.7374,-3.7374,0,-3.7065,-3.7113,-3.7111,-3.7144,-3.7196,-3.7189,-3.724,-3.7247,-3.7262,-3.7295,-3.7277,-3.7307,-3.73,-3.733,-3.7326,-3.7374,-3.7382,-3.7383,-3.7381,-3.7384,-3.7384,-3.7394,-3.7388,-3.7377,-3.7376,-3.7376,-3.7375,0,-3.7157,-3.7158,-3.7214,-3.723,-3.7235,-3.7272,-3.7285,-3.7315,-3.7317,-3.7358,-3.7367,-3.7371,-3.7405,-3.7402,-3.7441,-3.7438,-3.7497,-3.749,-3.7491,-3.7489,-3.7529,-3.7525,-3.7659,-3.7676,-3.7558,-3.756,-3.7561,0,-3.7217,-3.7253,-3.7273,-3.7294,-3.7306,-3.734,-3.7359,-3.7353,-3.7375,-3.7399,-3.7425,-3.7458,-3.7484,-3.7539,-3.7543,-3.7572,-3.7565,-3.761,-3.7569,-3.757,-3.7564,-3.7562,-3.7565,-3.7618,-3.7619,-3.762,-3.7621,0,-3.7324,-3.7323,-3.7353,-3.7383,-3.7407,-3.743,-3.7451,-3.7469,-3.7464,-3.7489,-3.7524,-3.7544,-3.7583,-3.7615,-3.7642,-3.7651,-3.7635,-3.7634,-3.7644,-3.7647,-3.7646,-3.7647,-3.7512,-3.7631,-3.763,-3.7629,-3.7628,-3.7628,-3.7401,-3.7432,-3.7451,-3.7484,-3.7499,-3.7519,-3.7548,-3.7553,-3.7583,-3.7615,-3.7609,-3.7648,-3.7664,-3.77,-3.7711,-3.774,-3.7724,-3.774,-3.7743,-3.7747,-3.7751,-3.7642,-3.7745,-3.7745,-3.7745,-3.7745,-3.7744,0,-3.7507,-3.7518,-3.7549,-3.7579,-3.7605,-3.7588,-3.761,-3.7633,-3.7667,-3.7685,-3.7711,-3.775,-3.7781,-3.7788,-3.7817,-3.7839,-3.7832,-3.7846,-3.7844,-3.7847,-3.7765,-3.7752,-3.7851,-3.7851,-3.7851,-3.7851,-3.7851,-3.7851,-3.7565,-3.7615,-3.7616,-3.7673,-3.7683,-3.7722,-3.7736,-3.7753,-3.7767,-3.7812,-3.7838,-3.7843,-3.7855,-3.7885,-3.7912,-3.7913,-3.7924,-3.7942,-3.794,-3.7863,-3.7852,-3.7842,-3.7831,-3.7944,-3.7944,-3.8019,-3.802,-3.802]}]]